Wind_Speed
7 8 7 8 9 10 10 11 11 11 11 12 13 13 14 15 15 15 16 16 17 18 18 19 20 21 22 23 24 24 24 25 26 27 28 29 30 31 32 33 33 34 35 35
9 9 9 9 10 10 11 12 12 12 12 13 13 14 14 15 15 16 17 18 18 19 19 20 21 22 23 24 24 24 25 26 27 28 29 30 31 32 33 33 34 35 35 36
10 11 11 11 11 11 12 13 14 14 14 15 15 16 16 16 16 17 18 19 19 20 20 21 22 23 24 24 25 25 27 28 28 29 31 32 33 33 34 34 35 36 36 37
13 13 13 13 14 14 14 15 16 16 17 17 17 17 18 19 19 20 20 21 21 22 22 23 23 24 24 25 25 27 28 29 30 32 32 33 33 34 35 36 36 36 36 37
15 15 15 16 17 18 18 18 19 19 19 19 19 19 19 20 21 22 22 23 23 24 24 24 25 26 26 27 27 28 29 30 31 33 33 34 35 35 36 37 37 38 38 39
19 20 19 19 20 21 21 21 21 22 21 21 21 21 22 23 23 24 24 25 25 26 26 26 27 28 28 29 29 30 31 32 33 33 34 34 35 36 37 37 38 39 39 40
22 22 22 23 23 24 24 24 24 24 24 23 24 24 24 25 25 26 26 27 28 28 29 29 29 29 29 30 31 32 34 35 35 35 35 36 36 37 37 38 38 39 39 40
25 25 25 26 26 27 27 27 27 26 26 26 26 26 26 26 27 27 28 29 29 30 30 31 31 31 31 32 33 34 35 36 37 37 37 37 38 38 39 39 40 40 40 41
28 27 27 28 28 29 29 28 28 28 28 28 28 28 28 28 29 30 31 31 32 32 32 32 33 33 34 34 35 36 37 38 38 38 38 39 39 40 40 41 41 41 42 42
30 29 30 31 30 30 29 29 29 29 30 30 30 30 30 31 31 32 32 33 33 33 34 34 34 35 36 37 37 38 39 40 40 40 40 40 40 41 41 42 42 42 43 42
33 32 33 32 33 33 32 32 32 32 31 31 32 32 32 33 33 33 33 34 34 35 35 35 35 36 37 38 39 39 40 40 41 40 41 41 41 41 42 43 43 43 43 42
36 35 36 34 35 35 35 35 35 35 34 34 34 33 34 34 34 34 34 35 35 36 36 36 36 37 38 39 39 40 40 41 41 41 41 41 41 42 43 43 43 43 43 42
40 39 38 37 37 37 37 37 37 36 36 36 35 35 35 35 35 35 36 36 36 36 36 37 37 38 39 39 40 40 41 41 42 41 41 41 41 42 43 43 44 43 43 42
42 42 41 40 40 39 39 38 38 38 37 37 36 36 36 36 36 36 37 37 37 37 37 37 38 39 40 40 41 41 41 41 41 41 41 42 42 42 43 43 43 43 43 42
44 44 43 42 41 41 41 41 40 39 38 38 38 37 38 38 38 38 38 38 38 38 38 39 39 40 40 40 41 41 41 41 41 42 42 42 42 42 43 43 42 42 42 41
44 44 43 43 42 42 42 41 40 40 39 39 39 39 39 39 39 39 39 39 38 39 39 40 40 41 40 40 41 41 41 41 41 41 41 42 42 42 42 42 42 42 41 40
43 43 43 43 43 42 42 41 41 41 40 40 40 41 41 40 40 40 40 40 39 39 40 40 41 41 40 40 41 41 41 41 41 41 40 41 41 41 41 41 41 42 41 41
43 42 42 42 41 41 41 41 41 41 41 41 40 40 41 41 40 40 40 40 40 40 40 40 40 40 40 40 40 40 40 40 40 40 40 40 40 40 41 41 42 42 41 40
41 40 40 41 40 40 40 40 40 41 41 41 40 41 40 40 40 40 40 40 40 40 40 40 40 40 39 39 39 39 39 39 40 40 40 40 40 40 41 41 42 42 40 40
40 40 40 40 40 40 39 40 40 41 41 41 41 41 41 40 40 40 40 40 40 40 40 40 39 39 39 39 38 38 38 38 39 39 39 40 40 40 41 41 42 41 40 39
39 40 41 41 41 41 41 40 40 40 41 40 41 41 41 40 40 40 40 39 39 39 39 39 39 39 39 38 38 37 37 38 38 38 38 39 39 40 40 41 41 40 38 38
40 40 41 41 41 41 41 41 41 41 40 40 40 40 40 40 40 39 39 39 39 38 38 38 38 38 38 38 37 37 37 37 37 37 38 38 39 39 39 40 39 38 37 36
41 41 41 40 41 41 40 40 40 40 39 39 38 39 39 39 38 38 38 38 38 38 37 37 38 38 38 37 36 36 36 36 36 37 37 38 38 38 38 38 38 37 35 34
43 43 43 42 41 41 40 39 39 39 39 38 37 38 37 37 36 37 37 37 37 36 36 36 37 37 37 37 36 35 35 35 36 36 37 37 37 37 37 37 36 34 33 32
46 45 44 43 43 42 41 40 39 39 38 37 37 37 36 36 35 35 35 35 35 35 35 35 36 36 36 35 34 34 34 35 36 36 36 36 36 36 36 35 33 31 31 30
46 44 44 43 42 41 40 39 38 37 36 36 35 35 35 35 34 34 34 34 34 34 34 34 34 34 34 33 33 33 34 35 36 35 35 34 34 34 34 32 31 29 28 27
45 43 42 41 40 40 39 37 37 36 36 35 35 35 35 35 34 34 33 33 33 33 33 34 34 33 33 32 32 33 33 34 34 33 32 32 32 32 31 30 28 26 25 25
Wind_Direction
331 325 323 319 312 310 311 311 312 310 306 302 306 305 305 305 303 302 302 301 301 303 302 302 304 306 306 307 309 309 309 308 306 304 303 302 300 299 297 294 291 289 287 285
321 318 318 317 310 309 310 310 311 310 308 307 310 310 309 307 305 305 306 307 305 303 304 304 306 308 309 310 309 310 310 308 307 306 305 304 304 303 301 298 295 292 290 287
308 307 308 308 305 305 306 307 307 308 307 307 308 308 309 308 307 306 307 308 308 306 306 306 307 308 309 309 309 308 308 308 307 307 307 307 306 305 303 300 297 295 293 290
303 301 303 305 302 303 302 302 303 303 303 305 305 305 305 304 303 303 304 306 307 307 307 307 307 308 309 310 310 310 309 308 309 308 308 307 307 306 305 303 301 298 295 293
299 299 300 301 300 300 299 298 298 299 300 301 301 302 303 304 304 304 304 305 305 305 305 305 305 306 308 309 311 312 313 312 311 310 308 307 307 306 306 305 303 300 298 296
295 295 296 297 296 297 297 295 295 296 297 297 297 298 300 302 302 303 304 304 303 303 303 304 305 306 307 308 310 311 312 312 311 310 309 308 308 307 306 305 304 302 300 299
289 291 293 294 294 294 293 294 293 294 295 294 295 297 297 297 299 300 302 302 303 302 302 303 304 305 305 307 308 309 310 310 310 310 309 308 308 309 308 307 306 305 303 302
286 288 291 291 291 291 291 291 291 291 291 293 294 295 295 296 298 299 300 301 301 301 301 302 303 304 304 305 307 308 309 310 310 309 308 308 308 308 308 308 308 307 306 304
285 287 288 289 290 290 289 290 290 290 290 291 292 293 293 295 295 296 298 299 300 300 300 300 301 302 303 304 305 307 309 309 309 309 308 308 308 308 308 308 308 308 307 305
284 284 284 286 286 286 287 288 288 289 290 290 292 292 292 294 294 294 296 298 299 299 299 300 300 301 301 302 303 306 308 309 309 309 308 308 308 309 309 309 309 309 308 306
283 282 281 282 283 282 283 285 286 288 290 291 291 291 292 294 295 295 296 298 299 300 300 300 300 301 301 302 303 305 307 308 308 308 308 309 309 310 310 311 311 310 309 308
283 283 282 281 281 281 282 284 286 287 288 289 290 291 292 294 294 295 297 299 299 300 299 299 300 301 302 303 303 305 306 307 308 308 308 309 310 311 312 312 312 312 311 310
281 280 280 282 282 283 283 283 284 285 286 287 289 290 290 291 292 294 297 298 299 299 298 298 299 300 302 303 304 305 306 307 307 308 308 309 310 311 312 313 314 313 313 312
279 279 279 280 281 282 282 282 283 284 285 286 287 288 288 290 292 294 295 297 297 298 297 297 298 299 302 303 304 305 306 307 307 307 308 309 310 311 312 313 314 314 314 313
280 280 281 280 281 281 281 282 282 283 284 284 285 286 286 288 290 291 293 295 296 296 296 296 298 300 302 303 304 305 306 306 306 307 308 309 310 312 313 313 313 313 313 312
280 280 281 280 280 281 281 281 282 282 282 283 283 283 285 287 288 289 291 293 294 295 296 297 298 300 302 302 303 304 305 306 306 307 308 309 311 312 313 313 314 314 314 313
280 280 280 280 281 280 280 280 280 280 281 282 283 283 285 286 287 288 289 291 293 294 295 297 298 299 301 302 303 304 304 305 307 308 309 310 311 312 313 314 314 315 314 313
281 280 280 280 280 280 279 279 280 281 282 282 283 284 285 286 286 287 289 290 292 294 295 296 297 299 300 301 302 303 304 305 307 308 309 310 310 311 312 313 314 315 314 314
282 281 281 281 281 281 280 280 281 282 282 282 283 284 286 286 286 287 288 290 292 293 294 296 297 298 299 301 302 303 304 305 307 308 309 309 310 310 312 313 315 315 315 314
281 281 281 281 282 281 281 280 281 281 281 282 283 284 285 285 286 287 289 290 291 292 293 295 296 297 298 300 301 303 304 305 307 308 309 309 310 310 312 314 315 315 315 314
280 280 281 281 281 281 281 282 282 282 282 283 283 284 284 285 286 287 289 290 291 292 293 294 295 296 297 299 301 302 304 306 307 308 309 310 311 312 313 314 315 315 315 314
280 281 281 281 281 281 282 283 284 284 284 283 283 284 285 285 286 287 288 289 290 291 292 293 294 295 297 299 301 302 304 306 307 309 310 311 312 313 313 314 315 315 315 315
281 281 281 282 282 282 283 284 284 284 284 284 284 284 285 286 286 287 288 289 289 290 291 292 294 295 297 298 300 302 304 306 307 309 310 312 312 313 314 315 316 315 315 315
279 281 281 282 282 283 283 284 283 284 284 283 284 284 285 286 287 288 289 289 290 290 290 291 293 295 297 298 299 301 303 306 308 309 311 312 313 313 314 316 316 315 315 316
278 279 280 281 282 283 282 282 282 282 282 282 282 283 284 285 287 288 289 290 290 290 290 291 293 296 297 298 299 300 303 306 308 310 311 312 313 314 315 316 316 315 316 316
277 278 279 280 280 281 281 281 280 279 280 280 281 282 283 284 286 287 289 289 289 290 290 291 293 295 297 297 298 300 303 306 308 310 311 312 314 315 315 316 316 316 316 317
276 278 278 278 279 279 279 279 278 278 278 279 280 281 282 284 285 286 288 289 289 290 291 292 293 295 296 298 299 302 304 306 308 309 311 312 315 316 316 317 317 317 318 320
Height
5707 5705 5703 5702 5700 5698 5696 5694 5692 5691 5689 5686 5683 5681 5678 5676 5673 5671 5668 5666 5663 5660 5657 5654 5651 5648 5644 5641 5637 5633 5629 5626 5622 5618 5615 5611 5607 5603 5599 5596 5593 5589 5586 5583
5706 5703 5701 5700 5698 5696 5693 5691 5689 5687 5685 5683 5680 5677 5675 5672 5669 5667 5664 5661 5658 5655 5652 5649 5646 5642 5638 5635 5631 5627 5623 5619 5615 5612 5608 5604 5599 5595 5591 5587 5583 5580 5577 5574
5703 5701 5699 5698 5696 5693 5691 5689 5686 5684 5683 5679 5677 5674 5671 5668 5665 5662 5660 5657 5654 5650 5647 5644 5640 5637 5633 5629 5625 5621 5617 5613 5609 5605 5600 5596 5592 5587 5583 5578 5574 5570 5567 5563
5700 5699 5697 5697 5692 5690 5687 5685 5682 5680 5677 5675 5672 5670 5667 5664 5661 5658 5655 5652 5648 5645 5642 5638 5634 5631 5627 5623 5619 5615 5611 5606 5602 5597 5592 5588 5583 5579 5574 5569 5565 5561 5556 5553
5695 5693 5692 5691 5688 5684 5683 5681 5678 5675 5672 5670 5667 5664 5662 5658 5655 5652 5649 5646 5643 5639 5636 5632 5629 5625 5621 5617 5612 5608 5604 5599 5594 5589 5584 5580 5575 5570 5565 5560 5555 5550 5546 5541
5690 5687 5687 5687 5682 5679 5678 5675 5672 5669 5666 5664 5661 5659 5657 5653 5649 5646 5643 5640 5636 5633 5629 5626 5622 5618 5614 5610 5605 5601 5596 5591 5587 5582 5576 5571 5566 5561 5556 5550 5545 5540 5535 5530
5683 5681 5681 5679 5676 5673 5671 5669 5666 5662 5660 5657 5654 5652 5650 5646 5643 5639 5636 5633 5629 5626 5622 5619 5615 5611 5607 5602 5598 5593 5588 5583 5578 5573 5568 5562 5557 5551 5546 5541 5535 5530 5525 5519
5677 5675 5676 5672 5668 5666 5664 5660 5657 5655 5652 5650 5648 5645 5642 5638 5635 5632 5629 5625 5622 5618 5614 5611 5607 5603 5599 5594 5590 5585 5580 5575 5569 5564 5559 5553 5548 5542 5537 5531 5525 5519 5514 5508
5670 5670 5666 5663 5660 5657 5655 5652 5650 5647 5645 5642 5639 5636 5633 5630 5627 5624 5620 5617 5613 5609 5606 5602 5598 5594 5590 5585 5581 5576 5571 5566 5560 5554 5549 5544 5538 5532 5527 5521 5515 5509 5503 5497
5661 5661 5658 5654 5650 5648 5646 5643 5641 5638 5636 5633 5631 5628 5625 5622 5618 5615 5611 5608 5604 5601 5597 5593 5589 5585 5580 5576 5571 5567 5561 5556 5550 5545 5539 5533 5528 5522 5516 5510 5504 5498 5492 5486
5651 5650 5647 5645 5641 5639 5636 5634 5632 5629 5627 5624 5621 5619 5615 5612 5609 5606 5602 5599 5595 5591 5587 5583 5579 5575 5571 5566 5561 5557 5551 5546 5540 5534 5529 5523 5517 5511 5505 5499 5493 5487 5481 5474
5640 5639 5636 5635 5632 5629 5627 5624 5622 5619 5617 5614 5611 5609 5606 5603 5599 5596 5593 5589 5585 5581 5577 5573 5569 5565 5561 5556 5551 5546 5541 5536 5530 5524 5518 5513 5507 5500 5494 5488 5482 5475 5469 5463
5627 5626 5624 5622 5621 5618 5616 5614 5611 5609 5607 5604 5601 5598 5595 5592 5589 5586 5582 5578 5575 5571 5567 5563 5559 5555 5550 5546 5541 5536 5531 5525 5519 5514 5508 5502 5496 5490 5484 5477 5470 5464 5458 5451
5614 5612 5612 5611 5609 5607 5604 5602 5600 5598 5596 5593 5591 5588 5585 5582 5579 5575 5572 5568 5564 5560 5556 5552 5548 5544 5540 5535 5530 5525 5520 5514 5509 5504 5498 5492 5486 5480 5474 5467 5460 5453 5446 5440
5601 5599 5599 5598 5597 5595 5593 5590 5589 5586 5584 5582 5579 5577 5574 5571 5568 5564 5561 5557 5553 5550 5546 5541 5537 5533 5529 5524 5520 5514 5509 5504 5499 5493 5488 5482 5476 5470 5463 5457 5450 5443 5437 5430
5588 5587 5585 5584 5583 5582 5580 5578 5576 5574 5572 5570 5567 5565 5562 5559 5557 5553 5549 5546 5542 5539 5535 5531 5527 5522 5518 5513 5509 5504 5499 5493 5488 5483 5477 5471 5465 5459 5453 5447 5440 5434 5427 5421
5574 5573 5572 5571 5570 5568 5567 5565 5563 5561 5559 5557 5555 5552 5550 5547 5545 5542 5538 5534 5531 5527 5524 5520 5516 5511 5507 5502 5498 5493 5488 5483 5477 5472 5466 5461 5455 5449 5443 5436 5430 5424 5417 5411
5561 5560 5559 5558 5556 5555 5553 5552 5550 5548 5546 5544 5542 5540 5537 5535 5532 5529 5526 5523 5519 5516 5512 5508 5504 5500 5496 5491 5487 5482 5477 5472 5467 5461 5456 5450 5444 5439 5433 5427 5420 5414 5407 5400
5547 5547 5546 5544 5542 5541 5540 5538 5537 5535 5533 5531 5529 5527 5524 5522 5519 5517 5514 5511 5507 5504 5501 5497 5493 5489 5485 5481 5476 5471 5467 5462 5456 5451 5445 5440 5434 5429 5423 5417 5410 5404 5397 5390
5535 5534 5533 5531 5529 5528 5527 5525 5523 5521 5520 5518 5516 5514 5511 5509 5507 5504 5501 5499 5495 5492 5489 5485 5482 5478 5474 5470 5465 5461 5456 5451 5446 5441 5435 5430 5424 5418 5413 5406 5400 5394 5387 5381
5523 5521 5520 5518 5517 5515 5513 5512 5510 5508 5507 5505 5503 5500 5498 5496 5494 5491 5488 5486 5483 5480 5477 5474 5470 5467 5463 5459 5454 5450 5445 5441 5436 5430 5425 5420 5414 5408 5402 5396 5390 5384 5378 5372
5510 5509 5507 5506 5504 5503 5501 5499 5497 5495 5493 5492 5489 5487 5485 5483 5481 5478 5476 5474 5471 5468 5465 5462 5459 5455 5452 5448 5444 5439 5435 5430 5425 5420 5415 5410 5404 5398 5392 5386 5380 5374 5368 5363
5497 5495 5494 5492 5491 5490 5488 5486 5484 5482 5480 5478 5476 5474 5472 5470 5468 5466 5464 5462 5459 5456 5453 5450 5447 5444 5441 5437 5433 5429 5425 5420 5415 5410 5405 5400 5394 5389 5383 5377 5371 5365 5360 5354
5483 5482 5480 5479 5478 5476 5475 5473 5471 5469 5467 5466 5464 5461 5459 5458 5456 5454 5451 5449 5447 5444 5441 5439 5436 5433 5430 5426 5423 5419 5415 5410 5406 5401 5395 5390 5385 5379 5374 5368 5362 5357 5351 5346
5469 5468 5467 5465 5464 5463 5461 5459 5458 5457 5455 5453 5452 5450 5448 5446 5444 5443 5440 5437 5435 5433 5430 5428 5425 5422 5419 5416 5413 5409 5405 5401 5396 5391 5386 5381 5376 5370 5365 5359 5354 5349 5344 5339
5455 5454 5453 5451 5450 5448 5447 5446 5445 5444 5442 5441 5440 5438 5436 5435 5433 5431 5429 5426 5424 5422 5419 5417 5414 5412 5409 5406 5403 5399 5395 5391 5387 5382 5377 5372 5367 5362 5356 5351 5346 5341 5337 5332
5440 5439 5438 5437 5436 5434 5433 5432 5431 5431 5430 5429 5428 5427 5425 5423 5422 5420 5418 5416 5414 5412 5409 5407 5404 5402 5399 5396 5393 5390 5386 5382 5377 5373 5368 5363 5358 5354 5349 5344 5339 5335 5331 5326